Weather History for KUNO - January, 2014

Change the Weather History Date:

Sunday, January 26, 2014

  Actual Average Record
Temperature  
Mean Temperature 45 °F 34 °F  
Max Temperature 67 °F 45 °F 77 °F (1952)
Min Temperature 23 °F 24 °F 4 °F (1978)
Degree Days  
Heating Degree Days 20 31  
Month to date heating degree days 900 806  
Since 1 July heating degree days 2657 2551  
Cooling Degree Days 0 0  
Month to date cooling degree days 0 0  
Year to date cooling degree days 0 0  
Moisture  
Dew Point 27 °F    
Average Humidity 49    
Maximum Humidity 75    
Minimum Humidity 22    
Precipitation  
Precipitation 0.00 in 0.13 in 1.39 in (1967)
Month to date precipitation 1.57 2.07  
Year to date precipitation 1.57 2.07  
Sea Level Pressure  
Sea Level Pressure 29.77 in    
Wind  
Wind Speed 10 mph (West)    
Max Wind Speed 25 mph    
Max Gust Speed 41 mph    
Visibility 10 miles    
Events      
T = Trace of Precipitation, MM = Missing Value Source: NWS Daily Summary

Daily Weather History Graph

Daily Weather History Graph

Search for Another Location

Airport or City:

Trip Planner

Search our weather history database for the weather conditions in past years. The results will help you decide how hot, cold, wet, or windy it might be!

Date:

Astronomy

Jan. 26, 2014 Rise Set
Actual Time 7:14 AM CST 5:26 PM CST
Civil Twilight 6:46 AM CST 5:54 PM CST
Nautical Twilight 6:15 AM CST 6:25 PM CST
Astronomical Twilight 5:44 AM CST 6:56 PM CST
Moon 2:51 AM CST (1/26) 1:16 PM CST (1/26)
Length of Visible Light 11h 07m
Length of Day
10h 12m
Waning Crescent, 23% of the Moon is Illuminated
Jan 26
Waning Crescent
Jan 30
New
Feb 6
First Quarter
Feb 14
Full
Feb 22
Last Quarter

Hourly Weather History & Observations

Time (CST) Temp. Windchill Dew Point Humidity Pressure Visibility Wind Dir Wind Speed Gust Speed Precip Events Conditions
12:53 AM 27.0 °F - 19.0 °F 72% 29.91 in 10.0 mi Calm Calm - N/A   Clear
1:53 AM 28.0 °F 22.8 °F 21.0 °F 75% 29.89 in 10.0 mi SSW 4.6 mph - N/A   Clear
2:53 AM 32.0 °F 27.5 °F 25.0 °F 75% 29.85 in 10.0 mi South 4.6 mph - N/A   Clear
3:53 AM 34.0 °F 28.0 °F 26.1 °F 73% 29.82 in 10.0 mi South 6.9 mph - N/A   Clear
4:53 AM 35.1 °F 27.9 °F 27.0 °F 72% 29.79 in 10.0 mi SSW 9.2 mph - N/A   Clear
5:53 AM 35.1 °F 27.9 °F 28.0 °F 76% 29.78 in 10.0 mi SW 9.2 mph - N/A   Clear
6:53 AM 35.1 °F 27.9 °F 28.0 °F 76% 29.78 in 10.0 mi SW 9.2 mph - N/A   Clear
7:53 AM 36.0 °F 28.0 °F 28.9 °F 76% 29.78 in 10.0 mi SW 11.5 mph - N/A   Clear
8:53 AM 42.1 °F 36.6 °F 30.0 °F 62% 29.77 in 10.0 mi SW 9.2 mph - N/A   Clear
9:53 AM 48.0 °F - 30.9 °F 52% 29.76 in 10.0 mi WSW 9.2 mph - N/A   Clear
10:53 AM 53.1 °F - 30.0 °F 41% 29.75 in 10.0 mi WSW 12.7 mph - N/A   Clear
11:53 AM 57.9 °F - 30.0 °F 35% 29.73 in 10.0 mi WSW 15.0 mph - N/A   Clear
12:53 PM 64.0 °F - 28.9 °F 27% 29.68 in 10.0 mi West 17.3 mph 25.3 mph N/A   Clear
1:53 PM 64.9 °F - 28.9 °F 26% 29.65 in 10.0 mi WSW 13.8 mph 23.0 mph N/A   Clear
2:53 PM 66.0 °F - 27.0 °F 23% 29.63 in 10.0 mi West 17.3 mph 25.3 mph N/A   Clear
3:53 PM 64.9 °F - 27.0 °F 24% 29.64 in 10.0 mi West 12.7 mph 20.7 mph N/A   Clear
4:53 PM 63.0 °F - 27.0 °F 26% 29.65 in 10.0 mi West 11.5 mph 20.7 mph N/A   Clear
5:53 PM 55.9 °F - 26.1 °F 32% 29.67 in 10.0 mi West 5.8 mph - N/A   Clear
6:53 PM 53.1 °F - 27.0 °F 37% 29.70 in 10.0 mi NW 5.8 mph - N/A   Clear
7:53 PM 51.1 °F - 27.0 °F 39% 29.73 in 10.0 mi NNW 6.9 mph - N/A   Clear
8:53 PM 48.9 °F - 28.9 °F 46% 29.77 in 10.0 mi NW 8.1 mph - N/A   Clear
9:53 PM 48.0 °F - 27.0 °F 44% 29.79 in 10.0 mi NW 6.9 mph - N/A   Clear
10:53 PM 44.1 °F 40.8 °F 26.1 °F 49% 29.81 in 10.0 mi NW 5.8 mph - N/A   Clear
11:38 PM 39.0 °F 29.0 °F 23.0 °F 53% 29.90 in 10.0 mi North 20.7 mph 32.2 mph N/A   Clear
11:53 PM 37.9 °F 27.9 °F 21.9 °F 53% 29.92 in 10.0 mi North 19.6 mph 31.1 mph N/A   Clear